Location: N�stved
(55.2249°N, 11.7842°E)
Time: 01:19:01
(UTC+00:00)

Daily predictions for brighter satellites

Satellite Brightness Start Highest point End
(mag) Time Altitude Azimuth Time Altitude Azimuth Time Altitude Azimuth
STARLINK-1209 3.5 00:00:04 10° W 00:02:57 33° SSW 00:05:51 10° SE
STARLINK-1247 3.3 00:00:43 10° W 00:03:40 38° SSW 00:06:36 10° SE
STARLINK-1227 3.3 00:01:12 10° W 00:04:06 37° SSW 00:07:00 10° SE
ATLAS CENTAUR R/B 0.8 00:02:09 10° WNW 00:04:14 68° SSW 00:07:58 10° ESE
STARLINK-1208 3.6 00:00:10 10° W 00:04:15 60° S 00:08:21 10° ESE
STARLINK-1226 3.3 00:02:03 10° W 00:04:58 37° SSW 00:07:54 10° SE
STARLINK-1215 3.3 00:02:59 10° W 00:05:55 37° SSW 00:08:50 10° SE
STARLINK-1225 3.6 00:02:35 10° WSW 00:06:42 63° S 00:10:49 10° E
STARLINK-1217 3.4 00:04:45 10° W 00:07:40 37° SSW 00:10:35 10° SE
Cosmos 292 Rocket 4.4 00:03:39 13° SW 00:07:54 52° NW 00:12:42 10° NNE
STARLINK-1229 3.4 00:05:41 10° W 00:08:35 36° SSW 00:11:30 10° SE
Cosmos 1726 3.9 00:06:08 10° NW 00:08:57 21° W 00:10:54 14° SW
STARLINK-1271 3.6 00:05:09 10° W 00:09:14 59° S 00:13:20 10° ESE
Nadezhda 2 Rocket 4.5 00:04:33 17° S 00:09:25 81° E 00:15:35 10° NNE
STARLINK-1270 3.4 00:06:32 10° W 00:09:27 36° SSW 00:12:22 10° SE
Cosmos 2058 Rocket 3.0 00:05:55 10° NNW 00:10:20 81° W 00:13:46 17° S
Lacrosse 4 Rocket 3.8 00:06:41 10° NNW 00:10:30 27° NNE 00:14:15 10° E
STARLINK-1189 3.4 00:08:23 10° W 00:11:17 35° SSW 00:14:11 10° SE
Meteor 1-29 2.9 00:07:59 10° NNE 00:11:26 81° ESE 00:13:32 22° S
STARLINK-1230 3.6 00:07:33 10° WSW 00:11:39 64° S 00:15:46 10° E
GEOS 3 Rocket 4.1 00:07:39 15° SSE 00:11:42 41° SW 00:16:42 10° NW
STARLINK-1188 3.4 00:09:16 10° W 00:12:10 35° SSW 00:15:03 10° SE
STARLINK-1235 3.6 00:09:58 10° W 00:12:47 31° SSW 00:15:35 10° SE
Cosmos 2228 3.6 00:08:45 10° NNW 00:12:49 44° W 00:15:32 19° SSW
STARLINK-1187 3.5 00:10:23 10° W 00:13:13 33° SSW 00:16:03 10° SE
STARLINK-1154 3.6 00:10:08 10° W 00:14:13 58° SSW 00:18:17 10° ESE
SJ 16-02 2.8 00:10:09 10° NNW 00:14:19 38° NE 00:18:28 10° ESE
STARLINK-1191 3.4 00:11:45 10° W 00:14:37 34° SSW 00:17:28 10° SE
STARLINK-1221 3.4 00:12:37 10° W 00:15:29 34° SSW 00:18:20 10° SE
COSMOS 2455 3.2 00:11:40 17° SSW 00:16:11 55° ESE 00:22:05 10° NE
STARLINK-1222 3.5 00:13:31 10° W 00:16:22 34° SSW 00:19:13 10° SE
STARLINK-1243 3.6 00:12:31 10° WSW 00:16:38 64° S 00:20:45 10° E
Cosmos 1953 4.3 00:14:23 10° NW 00:17:08 18° W 00:19:26 12° WSW
STARLINK-1214 3.5 00:14:26 10° W 00:17:16 33° SSW 00:20:07 10° SE
Cosmos 2263 4.4 00:12:25 13° SW 00:17:29 69° NW 00:23:07 10° NNE
Cosmos 1340 Rocket 4.5 00:15:48 10° NW 00:18:54 21° W 00:21:08 14° SW
STARLINK-1197 3.6 00:15:06 10° W 00:19:10 56° SSW 00:23:14 10° ESE
SL-14 R/B 3.5 00:18:39 18° S 00:21:27 63° E 00:25:16 10° NNE
STARLINK-1236 3.6 00:17:29 10° WSW 00:21:36 65° S 00:25:43 10° E
Cosmos 1300 2.6 00:18:19 10° NNW 00:22:10 80° W 00:25:04 17° S
IRAS Rocket 4.4 00:17:53 15° S 00:22:32 61° WSW 00:28:04 10° NNW
STARLINK-1198 3.7 00:20:03 10° W 00:24:07 55° SSW 00:28:10 10° ESE
Okean 1-7 Rocket 3.6 00:22:03 17° S 00:25:26 82° E 00:29:59 10° NNE
Cosmos 1174 4.0 00:23:33 20° S 00:25:27 43° SE 00:29:07 10° NE
COSMOS 2487 3.9 00:23:07 10° NW 00:25:53 22° WSW 00:27:18 17° SW
BREEZE M DEB (TANK) 3.4 00:26:49 19° SSE 00:26:49 19° SSE 00:28:38 10° SE
Cosmos 921 Rocket 3.9 00:23:34 14° SSE 00:26:48 39° ESE 00:30:50 10° NE
STARLINK-1199 3.7 00:25:04 10° W 00:29:06 53° SSW 00:33:10 10° ESE
Cosmos 2219 3.3 00:25:27 10° NNW 00:31:11 84° ENE 00:36:51 10° SE
STARLINK-1269 3.6 00:27:24 10° W 00:31:31 65° S 00:35:39 10° E
Cosmos 1626 Rocket 4.3 00:29:36 12° SSE 00:33:20 47° E 00:37:31 10° NNE
STARLINK-1210 3.7 00:30:02 10° W 00:34:04 52° SSW 00:38:06 10° ESE
STARLINK-1200 3.6 00:32:24 10° W 00:36:31 65° S 00:40:38 10° E
Cosmos 1626 2.1 00:34:31 18° SSW 00:37:13 87° WNW 00:40:58 10° NNE
STARLINK-60 4.4 00:36:26 18° S 00:37:36 22° SSE 00:40:11 10° E
STARLINK-1219 3.7 00:35:00 10° W 00:39:02 50° SSW 00:43:02 10° ESE
Cosmos 1656 Rocket 3.9 00:33:51 12° SW 00:39:02 66° NW 00:44:38 10° NNE
Nadezhda 1 Rocket 4.0 00:33:20 10° NNW 00:39:30 85° W 00:45:44 10° S
STARLINK-1192 3.6 00:37:22 10° W 00:41:29 65° S 00:45:37 10° E
FALCON 9 R/B 4.3 00:38:25 14° SSW 00:43:28 24° SSE 00:57:36 10° ESE
STARLINK-1211 3.8 00:39:58 10° W 00:43:58 49° SSW 00:47:58 10° ESE
STARLINK-1244 3.6 00:42:19 10° W 00:46:26 65° S 00:50:34 10° E
Cosmos 2297 Rocket 2.2 00:41:08 10° NW 00:46:51 88° ENE 00:52:31 10° SSE
MOZ.5/SAFIR/RUBIN 5/SL-8 3.8 00:44:15 12° S 00:48:30 64° WSW 00:53:08 10° NNW
UNK 3.7 00:44:07 10° SSE 00:48:45 81° WSW 00:53:22 10° NNW
STARLINK-1245 3.8 00:44:58 10° W 00:48:57 47° SSW 00:52:56 10° SE
ERBS 2.8 00:45:53 10° WNW 00:49:12 63° N 00:52:32 10° E
Cosmos 1812 Rocket 3.7 00:45:03 10° N 00:49:35 81° E 00:54:03 10° SSE
CZ-4B R/B 4.4 00:45:03 10° NNE 00:49:56 43° E 00:54:54 10° S
Cosmos 2082 4.4 00:44:44 10° NNW 00:50:23 59° NE 00:55:57 10° SE
STARLINK-1138 3.6 00:47:18 10° W 00:51:25 65° S 00:55:32 10° ESE
SL-4 R/B 3.2 00:49:12 15° SSW 00:52:39 33° SSE 00:56:52 10° E
STARLINK-1233 3.9 00:49:55 10° W 00:53:53 45° SSW 00:57:52 10° SE
STARLINK-1203 3.6 00:49:53 10° W 00:54:03 65° S 00:58:14 10° ESE
Cosmos 990 Rocket 4.3 00:49:20 10° NNW 00:54:38 74° ENE 00:59:53 10° SE
Cosmos 1437 2.5 00:52:48 17° S 00:55:01 86° E 00:58:03 10° NNE
SL-19 R/B 4.3 00:49:43 10° NNE 00:55:03 74° WNW 01:00:03 13° SSW
Cosmos 1674 4.2 00:53:21 11° WSW 00:56:20 25° WNW 00:59:32 10° N
STARLINK-1143 3.6 00:52:16 10° W 00:56:23 64° S 01:00:30 10° ESE
Timation 2 Rocket 4.5 00:52:30 10° NW 00:58:27 41° WSW 01:04:09 10° S
STARLINK-1204 3.9 00:54:55 10° W 00:58:52 44° SSW 01:02:49 10° SE
ATLAS CENTAUR R/B 1.4 00:56:56 14° SW 01:00:38 72° SE 01:04:41 10° NE
STARLINK-1241 3.6 00:57:14 10° W 01:01:22 64° S 01:05:28 10° ESE
Cosmos 2263 Rocket 4.4 00:57:03 10° NNW 01:02:01 30° NE 01:06:55 10° E
SL-16 R/B 2.6 00:56:34 10° S 01:02:40 64° WSW 01:08:50 10° NNW
BREEZE-M R/B 4.4 01:01:07 13° SSW 01:03:07 17° SSE 01:05:18 10° ESE
NOSS 3-4 (A) 3.5 00:57:37 10° SW 01:03:41 86° NW 01:10:20 10° NE
NOSS 3-4 (C) 3.5 00:57:42 10° SW 01:03:47 86° NW 01:10:26 10° NE
STARLINK-1238 4.0 00:59:52 10° W 01:03:48 42° SSW 01:07:43 10° SE
Cosmos 1455 2.4 01:00:50 10° N 01:04:36 69° ENE 01:08:20 10° SSE
ATLAS 3B R/B 3.5 01:00:02 10° WNW 01:05:49 31° WSW 01:11:46 10° S
Cosmos 1602 Rocket 3.7 01:01:58 11° S 01:06:04 74° E 01:10:24 10° NNE
STARLINK-1239 3.6 01:02:13 10° W 01:06:19 63° S 01:10:26 10° ESE
STARLINK-1201 4.0 01:04:52 10° W 01:08:46 40° SSW 01:12:40 10° SE
CENTAUR R/B 4.4 01:03:23 10° WNW 01:09:04 21° WSW 01:14:47 11° SSW
GP-B 3.6 01:06:17 10° N 01:10:43 59° E 01:15:07 10° SSE
STARLINK-1240 3.6 01:07:12 10° W 01:11:18 62° S 01:15:24 10° ESE
Meteor 2-1 Rocket 4.2 01:06:19 10° NNW 01:11:48 67° W 01:17:16 10° S
STARLINK-1206 4.1 01:09:51 10° W 01:13:44 39° SSW 01:17:35 10° SE
BREEZE-M DEB (TANK) 2.5 01:12:38 14° SSW 01:13:59 21° S 01:15:54 10° ESE
Cosmos-2242 3.4 01:09:54 10° N 01:14:11 66° ENE 01:18:25 10° SSE
STARLINK-1216 3.6 01:12:10 10° W 01:16:15 62° S 01:20:22 10° ESE
Cosmos 1400 Rocket 4.4 01:12:31 10° N 01:16:22 37° ENE 01:20:14 10° SE
STARLINK-1205 4.1 01:14:50 10° W 01:18:41 37° SSW 01:22:31 10° SE
Cosmos 1745 Rocket 4.1 01:12:45 11° SSW 01:18:43 73° WNW 01:24:53 10° N
Cosmos 2181 Rocket 4.2 01:14:11 10° N 01:20:37 82° ENE 01:27:05 10° SSE
STARLINK-1237 3.6 01:17:09 10° W 01:21:15 61° S 01:25:20 10° ESE
Cosmos 1356 Rocket 4.2 01:18:22 10° NNW 01:22:07 34° W 01:25:49 10° SSW
Cosmos 2227 Rocket 2.2 01:16:45 10° NW 01:22:24 65° WSW 01:28:00 10° SSE
RESURS DK-1 2.4 01:19:17 12° SW 01:23:09 89° NW 01:27:20 10° NE
STARLINK-1218 4.2 01:19:48 10° W 01:23:37 36° SSW 01:27:25 10° SE
SL-08 R/B 3.7 01:19:20 10° SSE 01:23:58 65° ENE 01:28:35 10° NNW
CZ-2D R/B 2.1 01:19:30 10° NNE 01:24:50 86° WNW 01:30:05 10° SSW
Helios 1B rocket 4.4 01:22:03 10° N 01:25:00 19° NW 01:27:56 10° WSW
STARLINK-1202 3.7 01:22:08 10° W 01:26:13 59° S 01:30:18 10° ESE
Meteor 1-24 Rocket 4.3 01:22:04 10° SW 01:27:05 43° WNW 01:32:16 10° N
ADEOS II 2.9 01:22:20 10° NNE 01:27:28 48° E 01:32:33 10° S
STARLINK-1254 4.2 01:24:48 10° W 01:28:35 34° SSW 01:32:20 10° SE
Cosmos 2369 Rocket 3.9 01:23:50 10° W 01:28:40 28° NNW 01:33:29 10° NNE
Cosmos 1763 Rocket 4.5 01:24:49 10° S 01:29:34 40° ESE 01:34:18 10° NE
Cosmos 1697 Rocket 4.2 01:25:01 10° SSE 01:29:53 30° ESE 01:34:46 10° NE
Cosmos 1703 4.0 01:27:49 10° S 01:31:39 50° E 01:35:30 10° NNE
ATLAS 2AS CENTAUR R/B 3.3 01:24:51 10° WSW 01:32:53 71° NNW 01:40:42 10° NE
STARLINK-1231 4.3 01:29:49 10° W 01:33:33 32° SSW 01:37:15 10° SE
Resurs 1-4 Rocket 2.2 01:29:18 10° NNE 01:34:35 73° WNW 01:39:52 10° SSW
STARLINK-1246 3.7 01:32:04 10° W 01:36:09 57° SSW 01:40:12 10° ESE
STARLINK-1232 4.4 01:34:49 10° W 01:38:29 31° SSW 01:42:10 10° SSE
ARIANE 5 R/B 3.7 01:34:46 10° NNE 01:39:33 39° E 01:44:15 10° SSE
Cosmos 1943 Rocket 4.3 01:35:15 10° WNW 01:39:35 22° NNW 01:43:56 10° NNE
STARLINK-1224 3.7 01:37:02 10° W 01:41:06 55° SSW 01:45:10 10° ESE
NPP 3.8 01:36:36 10° NNE 01:42:01 74° WNW 01:47:23 10° SSW
USA 81 4.2 01:36:49 10° SSW 01:42:04 68° W 01:47:23 10° N
STARLINK-52 4.1 01:39:43 10° SW 01:42:33 29° SSE 01:45:24 10° E
STARLINK-1208 4.4 01:39:47 10° W 01:43:25 30° SSW 01:47:02 10° SSE
Cosmos 1758 Rocket 3.6 01:40:07 10° S 01:44:27 85° E 01:48:52 10° NNE
STARLINK-1225 3.7 01:42:01 10° W 01:46:05 54° SSW 01:50:08 10° ESE
H-2A R/B 2.8 01:42:24 10° SSE 01:46:39 59° ENE 01:51:04 10° N
Cosmos 1898 Rocket 3.8 01:42:14 10° NW 01:47:26 52° WSW 01:52:35 10° S
STARLINK-1271 4.5 01:44:48 10° W 01:48:23 28° SSW 01:51:57 10° SSE
Lacrosse 4 Rocket 1.5 01:45:18 10° NW 01:49:43 83° SW 01:53:59 10° SE
STARLINK-1230 3.8 01:46:59 10° W 01:51:02 52° SSW 01:55:04 10° ESE
Starlink 7 placeholder 2.5 01:49:54 10° WSW 01:51:44 34° S 01:53:37 10° E
IDEFIX/ARIANE 42P 4.3 01:48:08 10° NNE 01:52:48 30° E 01:57:25 10° SSE
Cosmos 2285 Rocket 4.1 01:46:31 10° NNW 01:52:54 70° WSW 01:59:12 10° SSE
SJ 16-02 2.0 01:48:50 10° NW 01:52:55 36° WSW 01:56:58 10° S
Meteor 1-21 Rocket 4.3 01:47:33 10° SSW 01:53:08 74° WNW 01:58:53 10° NNE
Cosmos 2084 Rocket 4.1 01:49:04 10° NW 01:53:30 64° NNE 01:57:58 10° ESE
Cosmos 1656 4.0 01:49:07 10° SSW 01:54:45 69° ESE 02:00:21 10° NE
STARLINK-1243 3.8 01:51:58 10° W 01:56:00 51° SSW 02:00:01 10° ESE
CZ-4C R/B 3.4 01:52:07 10° S 01:56:42 33° ESE 02:02:03 10° ENE
